Home > Weather > Pierre > Past weeks

Flag for USA Past Weather in Pierre, South Dakota, USA — Yesterday and Last 2 Weeks

Now
59 °F

Clear.


Feels Like: 58 °F
Forecast: 58 / 81 °F
Wind: 7 mph from Northwest

Location: Pierre Regional Airport

Current Time: Jun 30, 2016 at 5:21:21 AM

Latest Report: Jun 30, 2016 at 4:53 AM


Visibility: 10 mi

Pressure: 29.98 "Hg

Humidity: 96%

Dew Point: 58 °F

Location of PierreLocation

Past Weather in Pierre — Graph

°F

Pierre Temperature Yesterday

Maximum temperature yesterday: 88 °F (at 4:53 PM)
Minimum temperature yesterday: 58 °F (at 5:53 AM)
Average temperature yesterday: 71 °F

High & Low Weather Summary for the Past Weeks

 TemperatureHumidityPressure
High102 °F (Jun 24, 4:53 PM)97% (Jun 15, 6:53 AM)30.27 "Hg (Jun 15, 6:53 AM)
Low50 °F (Jun 23, 5:53 AM)15% (Jun 26, 5:53 PM)29.54 "Hg (Jun 24, 6:53 PM)
Average74 °F59%29.94 "Hg
* Reported Jun 15 3:53 AM — Jun 30 3:53 AM, Pierre, Weather by CustomWeather, © 2016

Note: Actual official high and low records may vary slightly from our data, if they occured in-between our weather recording intervals... More about our weather records

Advertising

Pierre Weather History for the Previous 24 Hours

Scroll right to see more
 ConditionsComfort  
Time TempWeatherWind HumidityBarometerVisibility
3:53 AM
Thu, Jun 30
60 °FClear.8 mph96%29.99 "Hg10 mi
2:53 AM61 °FClear.7 mph93%29.99 "Hg10 mi
1:53 AM62 °FClear.9 mph90%30.00 "Hg10 mi
12:53 AM61 °FClear.9 mph90%29.99 "Hg10 mi
11:53 PM
Wed, Jun 29
62 °FClear.9 mph86%29.98 "Hg10 mi
10:53 PM62 °FClear.7 mph90%29.99 "Hg10 mi
9:53 PM66 °FSunny.8 mph75%29.92 "Hg10 mi
8:53 PM65 °FRain. Fog.28 mph87%29.90 "Hg6 mi
7:59 PM65 °FLight rain. Mostly cloudy.26 mph85%30.05 "Hg10 mi
6:53 PM83 °FSunny.6 mph38%29.94 "Hg10 mi
5:53 PM86 °FSunny.14 mph33%29.92 "Hg10 mi
4:53 PM88 °FSunny.12 mph31%29.94 "Hg10 mi
3:53 PM87 °FSunny.13 mph35%29.94 "Hg10 mi
2:53 PM86 °FSunny.12 mph36%29.98 "Hg10 mi
1:53 PM83 °FSunny.13 mph44%30.01 "Hg10 mi
12:53 PM81 °FPassing clouds.10 mph49%30.02 "Hg10 mi
11:53 AM78 °FSunny.9 mph54%30.03 "Hg10 mi
10:53 AM76 °FSunny.10 mph56%30.03 "Hg10 mi
9:53 AM73 °FSunny.8 mph62%30.04 "Hg10 mi
8:53 AM69 °FSunny.6 mph68%30.04 "Hg10 mi
7:53 AM65 °FSunny.8 mph73%30.03 "Hg10 mi
6:53 AM59 °FClear.9 mph84%30.03 "Hg10 mi
5:53 AM58 °FClear.9 mph87%30.03 "Hg10 mi
Weather by CustomWeather, © 2016

See weather overviewHow to use our weather pages